Showing default

DRAGON CRS-32, 63628

Orbit data source: Space-Track

DRAGON CRS-32, 63628 is a payload satellite in LEO that was launched on Mon, 21 Apr 2025 UTC via an FALCON 9 launch vehicle from the Air Force Eastern Test Range (AFETR). Payload-class satellites include a variety of spacecraft equipped with specific instruments for various scientific and technological missions. These include communications satellites like Starlink; space stations such as the ISS; scientific satellites like the Hubble; Earth observation satellites from companies like Planet Labs, Umbra, and HawkEye 360; GPS; miniature CubeSats for education and research; and military/defense satellites.

Loading next visibility...
Identifier
63628, 2025-080A
Orbit
LEO
Last TLE update
1 day ago
Origin
Unknown
Manufacturer
SpaceX
Mission
Operational spacecraft
Bus & Motor
DRAGON CM, Unknown motor
Mass
~15,600 kg wet, ~9,000 kg dry
Launch date (UTC)
2025-04-21 (1 month ago)
Launch vehicle
FALCON 9
Launch site
Air Force Eastern Test Range (AFETR)
Object type
Payload
Rocket body
Debris
Shape & HBR
Unknown
Radar Cross Section
Large (>1 m²)

Expand to show TLE details & history

TLE from 1 day ago
0 DRAGON CRS-32
1 63628U 25080A   25139.37788510  .00007195  00000-0  13575-3 0  9995
2 63628  51.6355  89.7991 0002193 125.4953 234.6241 15.49606624508546
Epoch: 2025-05-19T09:04Z
TLE epoch observation values (Epoch: 2025-05-19T09:04:09.272Z)
Latitude
0.00001°
Longitude
76.46911°
Altitude
419.48 km
Speed
7.66 km/s
True Right ascension
05h 59m 11s
True Declination
0° 00' 00"
Sunlit
Object was in daylight at epoch
Visualization orbit readout
Latitude
-15.94264°
Longitude
-97.10306°
Altitude
421.447 km
Speed
7.659 km/s
Apparent Right ascension
16h 28m 40s
Apparent Declination
-32° 06' 28"
Sunlit
Object is in full shadow
Visualization observer readout
Local Sidereal Time
01:47:00
Azimuth
270.64° WNW
Elevation
-56.685°
Doppler factor
1
Orbital elements
Apogee altitude
419.875 km
Perigee altitude
416.894 km
Semi-major axis
6,796.522 km
Eccentricity
0.00022
Inclination
51.6355°
RAAN
89.7991°
Arg. of periapsis
125.4953°
True anomaly
Unknown
Mean anomaly
234.6241°
Eccentric anomaly
Unknown
Mean motion
3.87359 °/min
Orbital period
92.94 mins
BSTAR
0.00013575
Loading maneuver chart data...
Loading SW <> Apogee altitude chart data...
Loading historical data...
Loading historical data...
Loading historical data...
Loading historical data...
Loading historical data...
Loading historical data...
Loading historical data...
Other satellites on launch #80 in the year 2025 (2025-04-21 UTC)

DRAGON CRS-32 Visibility forecast

Observer location: undefined°, undefined°

Span
Click to sort rows by Start time (UTC) header in descending order
Start Az.
Max El. time (UTC)
Max El. Az.
Max El.
End time (UTC)
End Az.
4 mins2025-05-20 22:23:04.860Z181.535° SSW2025-05-20 22:25:04.860Z132.89° SE23.018°2025-05-20 22:27:04.860Z85.119° E
4 mins2025-05-21 00:00:04.860Z276.377° WNW2025-05-21 00:02:04.860Z346.372° N29.786°2025-05-21 00:04:04.860Z33.043° NE
4 mins2025-05-21 04:53:04.860Z338.196° N2025-05-21 04:55:04.860Z46.951° ENE28.691°2025-05-21 04:57:04.860Z91.926° ESE
4 mins2025-05-21 06:30:04.860Z263.094° W2025-05-21 06:31:04.860Z235.447° WSW23.8°2025-05-21 06:34:04.860Z167.884° S
|